2ANJA EGJB-EGSS

Flight info

Callsign 2ANJA
Flight time 0h 51m
Altitude 19000
Route ORTAC DCT VEXEN DCT THRED DCT KUMIL DCT ABSAV L980 AVANT
Aircraft B350/L-SBGRW/S

Departure

Time 2026-04-24 13:55
Airport Guernsey Airport (EGJB)

Arrival

Time 2026-04-24 14:46
Airport London Stansted Airport (EGSS)
Time Latitude Longitude Altitude Speed Heading
2026-04-24 13:47 49.43194 -2.59997 318 ft 0 kts 266°
2026-04-24 13:52 49.43194 -2.60001 318 ft 2 kts 278°
2026-04-24 13:53 49.43208 -2.59992 318 ft 12 kts 102°
2026-04-24 13:53 49.43305 -2.59924 319 ft 28 kts 358°
2026-04-24 13:53 49.43339 -2.60042 317 ft 25 kts 267°
2026-04-24 13:53 49.43330 -2.60379 313 ft 28 kts 270°
2026-04-24 13:54 49.43344 -2.60762 308 ft 43 kts 281°
2026-04-24 13:54 49.43363 -2.61166 302 ft 41 kts 268°
2026-04-24 13:54 49.43441 -2.61352 300 ft 21 kts 11°
2026-04-24 13:54 49.43476 -2.61098 305 ft 64 kts 85°
2026-04-24 13:55 49.43500 -2.60101 853 ft 101 kts 84°
2026-04-24 13:55 49.43544 -2.59063 1910 ft 105 kts 89°
2026-04-24 13:55 49.43792 -2.57928 2765 ft 121 kts 58°
2026-04-24 13:55 49.44346 -2.56747 3330 ft 156 kts 63°
2026-04-24 13:56 49.44992 -2.55170 3581 ft 189 kts 62°
2026-04-24 13:56 49.45719 -2.53373 3846 ft 206 kts 63°
2026-04-24 13:56 49.46473 -2.51465 4098 ft 211 kts 62°
2026-04-24 13:56 49.47245 -2.49533 4358 ft 213 kts 63°
2026-04-24 13:57 49.48022 -2.47627 4617 ft 214 kts 62°
2026-04-24 13:57 49.48810 -2.45689 5052 ft 203 kts 62°
2026-04-24 13:57 49.49645 -2.44135 6150 ft 181 kts 41°
2026-04-24 13:57 49.50786 -2.43746 7166 ft 175 kts 342°
2026-04-24 13:58 49.51902 -2.43844 8078 ft 170 kts 29°
2026-04-24 13:58 49.52845 -2.42589 8466 ft 191 kts 57°
2026-04-24 13:58 49.53677 -2.40888 8901 ft 206 kts 56°
2026-04-24 13:58 49.54599 -2.39112 9342 ft 216 kts 56°
2026-04-24 13:59 49.55540 -2.37309 9804 ft 222 kts 56°
2026-04-24 13:59 49.56570 -2.35499 10239 ft 227 kts 52°
2026-04-24 13:59 49.57680 -2.33746 10650 ft 230 kts 51°
2026-04-24 13:59 49.58810 -2.31990 11068 ft 232 kts 49°
2026-04-24 14:00 49.59933 -2.30199 11489 ft 233 kts 51°
2026-04-24 14:00 49.61062 -2.28397 11913 ft 234 kts 51°
2026-04-24 14:00 49.62203 -2.26590 12343 ft 236 kts 50°
2026-04-24 14:00 49.63334 -2.24758 12780 ft 236 kts 51°
2026-04-24 14:01 49.64461 -2.22937 13180 ft 240 kts 51°
2026-04-24 14:01 49.65632 -2.21081 13626 ft 243 kts 51°
2026-04-24 14:01 49.66805 -2.19194 14068 ft 244 kts 51°
2026-04-24 14:01 49.67958 -2.17332 14464 ft 237 kts 51°
2026-04-24 14:02 49.69100 -2.15518 14865 ft 234 kts 50°
2026-04-24 14:02 49.70219 -2.13709 15271 ft 232 kts 49°
2026-04-24 14:02 49.71329 -2.11894 15679 ft 232 kts 50°
2026-04-24 14:02 49.72441 -2.10079 16096 ft 233 kts 50°
2026-04-24 14:03 49.73548 -2.08242 16526 ft 233 kts 50°
2026-04-24 14:03 49.74627 -2.06406 16949 ft 235 kts 50°
2026-04-24 14:03 49.75730 -2.04524 17385 ft 237 kts 50°
2026-04-24 14:03 49.76832 -2.02618 17829 ft 238 kts 50°
2026-04-24 14:04 49.77933 -2.00691 18279 ft 240 kts 50°
2026-04-24 14:04 49.79062 -1.98730 18517 ft 245 kts 48°
2026-04-24 14:04 49.80251 -1.96830 18726 ft 247 kts 46°
2026-04-24 14:04 49.81479 -1.94982 18930 ft 246 kts 42°
2026-04-24 14:05 49.82771 -1.93229 19130 ft 247 kts 41°
2026-04-24 14:05 49.84084 -1.91471 19218 ft 253 kts 41°
2026-04-24 14:05 49.85473 -1.89800 19218 ft 259 kts 36°
2026-04-24 14:05 49.86953 -1.88154 19225 ft 264 kts 36°
2026-04-24 14:06 49.88458 -1.86500 19235 ft 265 kts 36°
2026-04-24 14:06 49.89970 -1.84844 19237 ft 267 kts 35°
2026-04-24 14:06 49.91493 -1.83172 19239 ft 268 kts 36°
2026-04-24 14:06 49.93052 -1.81579 19235 ft 268 kts 32°
2026-04-24 14:07 49.94655 -1.80089 19237 ft 268 kts 30°
2026-04-24 14:07 49.96266 -1.78613 19246 ft 269 kts 29°
2026-04-24 14:07 49.97877 -1.77131 19247 ft 269 kts 31°
2026-04-24 14:07 49.99469 -1.75662 19246 ft 270 kts 30°
2026-04-24 14:08 50.01084 -1.74162 19243 ft 271 kts 30°
2026-04-24 14:08 50.02706 -1.72681 19239 ft 270 kts 27°
2026-04-24 14:08 50.04401 -1.71416 19236 ft 271 kts 22°
2026-04-24 14:08 50.06124 -1.70237 19242 ft 271 kts 23°
2026-04-24 14:09 50.07850 -1.69080 19244 ft 270 kts 22°
2026-04-24 14:09 50.09579 -1.67926 19243 ft 271 kts 22°
2026-04-24 14:09 50.11310 -1.66762 19242 ft 271 kts 22°
2026-04-24 14:09 50.13014 -1.65626 19243 ft 270 kts 22°
2026-04-24 14:10 50.14742 -1.64472 19247 ft 270 kts 22°
2026-04-24 14:10 50.16467 -1.63312 19246 ft 270 kts 22°
2026-04-24 14:10 50.18194 -1.62158 19244 ft 270 kts 22°
2026-04-24 14:10 50.19921 -1.60996 19249 ft 272 kts 22°
2026-04-24 14:11 50.21652 -1.59807 19248 ft 272 kts 23°
2026-04-24 14:11 50.23382 -1.58626 19248 ft 272 kts 22°
2026-04-24 14:11 50.26848 -1.56242 19249 ft 272 kts 23°
2026-04-24 14:12 50.28558 -1.55076 19252 ft 272 kts 22°
2026-04-24 14:12 50.30290 -1.53891 19250 ft 272 kts 22°
2026-04-24 14:12 50.32025 -1.52697 19249 ft 272 kts 22°
2026-04-24 14:12 50.33755 -1.51517 19251 ft 272 kts 22°
2026-04-24 14:13 50.35487 -1.50327 19252 ft 272 kts 22°
2026-04-24 14:13 50.37219 -1.49131 19250 ft 272 kts 22°
2026-04-24 14:13 50.38950 -1.47945 19250 ft 271 kts 22°
2026-04-24 14:13 50.40683 -1.46753 19255 ft 272 kts 23°
2026-04-24 14:14 50.42390 -1.45574 19259 ft 271 kts 22°
2026-04-24 14:14 50.44119 -1.44392 19257 ft 271 kts 22°
2026-04-24 14:14 50.47460 -1.41634 19264 ft 271 kts 29°
2026-04-24 14:15 50.49093 -1.40151 19262 ft 271 kts 29°
2026-04-24 14:15 50.50729 -1.38659 19258 ft 272 kts 30°
2026-04-24 14:15 50.52374 -1.37180 19258 ft 273 kts 30°
2026-04-24 14:15 50.54023 -1.35708 19257 ft 273 kts 30°
2026-04-24 14:16 50.55654 -1.34253 19253 ft 273 kts 30°
2026-04-24 14:16 50.57307 -1.32779 19252 ft 273 kts 30°
2026-04-24 14:16 50.58959 -1.31306 19257 ft 273 kts 30°
2026-04-24 14:17 50.62250 -1.28306 19266 ft 273 kts 36°
2026-04-24 14:17 50.63609 -1.26230 19276 ft 273 kts 55°
2026-04-24 14:17 50.64891 -1.20722 19275 ft 269 kts 88°
2026-04-24 14:18 50.65256 -1.17859 19251 ft 273 kts 74°
2026-04-24 14:18 50.66091 -1.15169 19250 ft 275 kts 58°
2026-04-24 14:18 50.67342 -1.12884 19249 ft 276 kts 43°
2026-04-24 14:18 50.68837 -1.10985 19252 ft 276 kts 37°
2026-04-24 14:19 50.70378 -1.09175 19252 ft 276 kts 38°
2026-04-24 14:19 50.71878 -1.07281 19256 ft 276 kts 41°
2026-04-24 14:19 50.73334 -1.05304 19256 ft 276 kts 41°
2026-04-24 14:19 50.74795 -1.03341 19253 ft 276 kts 41°
2026-04-24 14:20 50.76270 -1.01397 19251 ft 276 kts 40°
2026-04-24 14:20 50.77721 -0.99478 19250 ft 276 kts 41°
2026-04-24 14:20 50.79191 -0.97526 19251 ft 276 kts 41°
2026-04-24 14:20 50.80660 -0.95572 19251 ft 276 kts 41°
2026-04-24 14:21 50.82141 -0.93639 19241 ft 276 kts 37°
2026-04-24 14:21 50.83726 -0.91938 19248 ft 275 kts 34°
2026-04-24 14:21 50.85317 -0.90249 19249 ft 275 kts 34°
2026-04-24 14:21 50.86900 -0.88543 19248 ft 275 kts 34°
2026-04-24 14:22 50.88486 -0.86836 19252 ft 276 kts 35°
2026-04-24 14:22 50.90073 -0.85130 19248 ft 276 kts 35°
2026-04-24 14:22 50.93226 -0.81740 19247 ft 275 kts 35°
2026-04-24 14:23 50.94808 -0.80035 19254 ft 275 kts 35°
2026-04-24 14:23 50.96392 -0.78326 19252 ft 275 kts 35°
2026-04-24 14:23 50.97976 -0.76617 19249 ft 275 kts 35°
2026-04-24 14:23 50.99559 -0.74908 19253 ft 275 kts 35°
2026-04-24 14:24 51.01140 -0.73198 19254 ft 275 kts 35°
2026-04-24 14:24 51.02703 -0.71507 19257 ft 275 kts 35°
2026-04-24 14:24 51.04284 -0.69796 19255 ft 275 kts 35°
2026-04-24 14:24 51.05867 -0.68080 19256 ft 275 kts 35°
2026-04-24 14:25 51.07449 -0.66362 19255 ft 275 kts 35°
2026-04-24 14:25 51.09032 -0.64645 19255 ft 275 kts 35°
2026-04-24 14:25 51.10612 -0.62929 19257 ft 275 kts 35°
2026-04-24 14:25 51.12192 -0.61211 19255 ft 275 kts 35°
2026-04-24 14:26 51.13771 -0.59492 19259 ft 275 kts 35°
2026-04-24 14:26 51.15354 -0.57765 19255 ft 276 kts 35°
2026-04-24 14:26 51.16917 -0.56063 19258 ft 276 kts 35°
2026-04-24 14:26 51.18500 -0.54336 19257 ft 276 kts 35°
2026-04-24 14:27 51.20082 -0.52607 19259 ft 276 kts 35°
2026-04-24 14:27 51.21664 -0.50879 19260 ft 275 kts 35°
2026-04-24 14:27 51.23246 -0.49149 19260 ft 276 kts 35°
2026-04-24 14:27 51.24826 -0.47417 19258 ft 275 kts 35°
2026-04-24 14:28 51.26405 -0.45688 19258 ft 275 kts 35°
2026-04-24 14:28 51.27983 -0.43959 19261 ft 275 kts 35°
2026-04-24 14:28 51.29561 -0.42227 19260 ft 275 kts 35°
2026-04-24 14:28 51.31139 -0.40492 19260 ft 275 kts 35°
2026-04-24 14:29 51.32693 -0.38784 19261 ft 275 kts 35°
2026-04-24 14:29 51.34269 -0.37048 19283 ft 274 kts 35°
2026-04-24 14:29 51.35833 -0.35326 19282 ft 272 kts 35°
2026-04-24 14:29 51.37392 -0.33607 19281 ft 272 kts 35°
2026-04-24 14:30 51.38420 -0.32475 19280 ft 271 kts 35°
2026-04-24 14:30 51.40498 -0.30180 19282 ft 271 kts 35°
2026-04-24 14:30 51.42050 -0.28465 19282 ft 271 kts 35°
2026-04-24 14:30 51.43601 -0.26751 19282 ft 271 kts 35°
2026-04-24 14:31 51.45150 -0.25035 19283 ft 271 kts 35°
2026-04-24 14:31 51.46679 -0.23342 19282 ft 271 kts 35°
2026-04-24 14:31 51.48227 -0.21625 19258 ft 271 kts 35°
2026-04-24 14:31 51.49775 -0.19908 19259 ft 271 kts 35°
2026-04-24 14:32 51.51321 -0.18189 19260 ft 271 kts 35°
2026-04-24 14:32 51.52872 -0.16467 19260 ft 271 kts 35°
2026-04-24 14:32 51.54420 -0.14742 19262 ft 271 kts 35°
2026-04-24 14:32 51.55968 -0.13020 19320 ft 271 kts 35°
2026-04-24 14:33 51.57517 -0.11295 19324 ft 271 kts 36°
2026-04-24 14:33 51.59059 -0.09574 19324 ft 270 kts 36°
2026-04-24 14:33 51.60602 -0.07851 19323 ft 270 kts 36°
2026-04-24 14:33 51.62142 -0.06131 19322 ft 269 kts 36°
2026-04-24 14:34 51.63659 -0.04435 19323 ft 269 kts 36°
2026-04-24 14:34 51.65197 -0.02714 19321 ft 269 kts 36°
2026-04-24 14:34 51.66736 -0.00990 19315 ft 269 kts 36°
2026-04-24 14:34 51.68271 0.00731 19286 ft 269 kts 36°
2026-04-24 14:35 51.69807 0.02452 19285 ft 269 kts 35°
2026-04-24 14:35 51.71344 0.04179 19283 ft 270 kts 36°
2026-04-24 14:35 51.72883 0.05909 19302 ft 269 kts 36°
2026-04-24 14:35 51.74422 0.07640 19303 ft 270 kts 36°
2026-04-24 14:36 51.75939 0.09348 19308 ft 269 kts 36°
2026-04-24 14:36 51.77475 0.11079 19309 ft 269 kts 36°
2026-04-24 14:36 51.79011 0.12809 19308 ft 269 kts 36°
2026-04-24 14:36 51.80549 0.14545 19310 ft 269 kts 36°
2026-04-24 14:37 51.82082 0.16279 19312 ft 268 kts 36°
2026-04-24 14:37 51.83610 0.18007 19310 ft 268 kts 36°
2026-04-24 14:37 51.85137 0.19732 19312 ft 267 kts 36°
2026-04-24 14:37 51.86662 0.21458 19310 ft 267 kts 36°
2026-04-24 14:38 51.88185 0.23188 19311 ft 267 kts 36°
2026-04-24 14:38 51.89708 0.24913 19311 ft 267 kts 36°
2026-04-24 14:38 51.91211 0.26618 19312 ft 267 kts 36°
2026-04-24 14:38 51.92731 0.28348 19310 ft 267 kts 36°
2026-04-24 14:39 51.94252 0.30078 19312 ft 267 kts 36°
2026-04-24 14:39 51.95772 0.31807 19310 ft 267 kts 36°
2026-04-24 14:39 51.97294 0.33539 19310 ft 267 kts 36°
2026-04-24 14:39 51.98739 0.35415 19326 ft 266 kts 49°
2026-04-24 14:40 51.99782 0.37863 19329 ft 264 kts 68°
2026-04-24 14:40 52.00298 0.40694 19328 ft 261 kts 86°
2026-04-24 14:40 52.00241 0.43608 19328 ft 258 kts 105°
2026-04-24 14:40 51.99637 0.46270 19327 ft 254 kts 123°
2026-04-24 14:41 51.98562 0.48502 19324 ft 250 kts 138°
2026-04-24 14:41 51.97295 0.50444 19317 ft 251 kts 141°
2026-04-24 14:41 51.95996 0.52337 19302 ft 250 kts 145°
2026-04-24 14:41 51.94781 0.51606 17753 ft 179 kts 244°
2026-04-24 14:42 51.94628 0.49923 14459 ft 142 kts 275°
2026-04-24 14:42 51.94818 0.48400 11030 ft 136 kts 291°
2026-04-24 14:42 51.95173 0.46995 7766 ft 132 kts 293°
2026-04-24 14:42 51.95213 0.45432 5501 ft 134 kts 264°
2026-04-24 14:43 51.95092 0.43840 4245 ft 159 kts 265°
2026-04-24 14:43 51.94944 0.41930 3436 ft 181 kts 264°
2026-04-24 14:43 51.94799 0.39917 2993 ft 176 kts 266°
2026-04-24 14:43 51.94693 0.37935 2607 ft 186 kts 268°
2026-04-24 14:44 51.94571 0.35833 2384 ft 187 kts 261°
2026-04-24 14:44 51.94044 0.34035 2435 ft 175 kts 235°
2026-04-24 14:44 51.93325 0.32348 1805 ft 190 kts 228°
2026-04-24 14:44 51.92447 0.30726 1344 ft 191 kts 229°
2026-04-24 14:45 51.91626 0.29087 1105 ft 182 kts 233°
2026-04-24 14:45 51.90966 0.27344 928 ft 180 kts 242°
2026-04-24 14:45 51.90247 0.25776 803 ft 186 kts 218°
2026-04-24 14:45 51.89131 0.24267 638 ft 222 kts 221°
2026-04-24 14:46 51.88011 0.22554 603 ft 207 kts 242°
2026-04-24 14:46 51.87391 0.21265 838 ft 119 kts 117°
2026-04-24 14:46 51.87720 0.22291 385 ft 98 kts 47°
2026-04-24 14:46 51.88014 0.22746 331 ft 29 kts 44°
2026-04-24 14:47 51.88201 0.23029 330 ft 43 kts 41°
2026-04-24 14:47 51.88375 0.23064 329 ft 31 kts 297°
2026-04-24 14:47 51.88462 0.23029 332 ft 21 kts 39°
2026-04-24 14:47 51.88565 0.22961 332 ft 29 kts 307°
2026-04-24 14:48 51.88643 0.22725 331 ft 11 kts 239°
2026-04-24 14:48 51.88604 0.22683 331 ft 1 kts 39°
2026-04-24 14:48 51.88606 0.22686 331 ft 0 kts 30°